Regional Weather Roundup
Issued by NWS

Home | Current Version | Previous Version | Graphics & Text | Print | Product List | Glossary Off
Versions: 1 2 3 4 5 6 7 8 9 10 11 12 13 14 15 16 17 18 19 20 21 22 23 24 25 26 27 28 29 30 31 32 33 34 35 36 37 38 39 40 41 42 43 44 45 46 47 48 49 50

930
ASUS43 KMPX 051310
RWRMN
WEATHER ROUNDUP FOR MINNESOTA
NATIONAL WEATHER SERVICE TWIN CITIES/CHANHASSEN MN
700 AM CST FRI FEB 05 2016


NOTE: "FAIR" INDICATES FEW OR NO CLOUDS BELOW 12,000 FEET WITH NO
SIGNIFICANT WEATHER AND/OR OBSTRUCTIONS TO VISIBILITY. N/A MEANS
CURRENT SKY AND/OR WEATHER CONDITIONS ARE NOT AVAILABLE.

MNZ060>063-068>070-051400-
   Twin Cities Metro

CITY           SKY/WX    TMP DP  RH WIND       PRES   REMARKS
TWIN CITIES    CLOUDY     9   6  88 S7        30.33R WCI  -2
ST PAUL        CLOUDY     8   5  87 SE3       30.35S
CRYSTAL        PTCLDY     4   0  83 S3        30.31R
BLAINE         PTCLDY     5   1  85 S3        30.31R
LAKEVILLE      PTCLDY     0  -2  92 CALM      30.33R
EDEN PRAIRIE   CLOUDY     4  -1  80 S5        30.31S HAZE    WCI  -5
SOUTH ST PAUL  CLOUDY     5   2  86 CALM      30.34R
LAKE ELMO      FAIR       0  -6  78 CALM      30.34R
$$
MNZ001>005-007-008-013>017-022>024-027-028-051400-
   Northwest Minnesota

CITY           SKY/WX    TMP DP  RH WIND       PRES   REMARKS
BEMIDJI        CLOUDY    11   8  87 E5        30.15R WCI   3
HALLOCK        PTCLDY    14  10  85 E6        30.14S WCI   5
ROSEAU         CLOUDY    18  12  79 SE5       30.14F WCI  11
WARROAD        CLOUDY    16  10  79 CALM      30.15F
THIEF RVR FALL CLOUDY    12  10  92 E6        30.14R WCI   3
CROOKSTON      MOCLDY    18  14  86 S8        30.14S WCI   7
FOSSTON        CLOUDY    16  10  79 S8        30.13R WCI   5
DETROIT LAKES  CLOUDY    18  14  86 S10       30.14S WCI   6
MOORHEAD       CLOUDY    19  16  86 S14       30.14S WCI   6
PARK RAPIDS    CLOUDY    12   8  84 S12       30.15S FOG     WCI  -2
MAHNOMEN       CLOUDY    18  13  82 S10       30.11F WCI   6
$$
MNZ006-009>011-018-025>026-051400-
   North Central Minnesota

CITY           SKY/WX    TMP DP  RH WIND       PRES   REMARKS
BAUDETTE       CLOUDY    13   8  81 SE6       30.15S WCI   4
FLAG ISLAND    FLURRIES  10   7  85 SE3       30.16S
INTL FALLS     CLOUDY     8   4  83 SE5       30.20R WCI   0
WASKISH        CLOUDY    14  10  85 E3        30.17R
LONGVILLE      CLOUDY     5   1  85 SE3       30.19S
GRAND RAPIDS   CLOUDY     7   1  78 SE5       30.20S WCI  -2
CRANE LAKE     CLOUDY    -2  -6  84 CALM      30.24S
ORR            CLOUDY     7   1  78 CALM      30.18S
COOK           CLOUDY     1   0  92 E1        30.21S
WALKER         FAIR      14  10  83 S8        30.16S WCI   3
$$
MNZ012-019>021-037-051400-
   Northeast Minnesota

CITY           SKY/WX    TMP DP  RH WIND       PRES   REMARKS
DULUTH         CLOUDY     3  -1  83 CALM      30.23F
ELY            CLOUDY    -2  -8  78 CALM      30.22R
HIBBING        CLOUDY     0  -3  87 CALM      30.22R
EVELETH        CLOUDY     0  -4  85 CALM      30.23S
DULUTH HARBOR  CLOUDY     7   3  85 S3        30.32S
TWO HARBORS    CLOUDY     7   1  78 CALM      30.25R
SILVER BAY     MOCLDY    -2  -8  78 CALM      30.25R
GRAND MARAIS     N/A     10   4  76 CALM      30.29S
G MARAIS ARPRT CLOUDY    -2  -8  78 CALM      30.19R
$$
MNZ029>031-032-039>041-046>048-054>057-064-051400-
   West Central Minnesota

CITY           SKY/WX    TMP DP  RH WIND       PRES   REMARKS
FERGUS FALLS   CLOUDY    18  12  79 S13       30.20S WCI   4
WHEATON        CLOUDY    18  16  93 SE13      30.18S WCI   4
MORRIS         CLOUDY    16  12  86 SE13      30.17F WCI   2
ALEXANDRIA     CLOUDY    13  10  88 S12       30.19S WCI  -1
ELBOW LAKE     CLOUDY    15  13  92 E13       30.17S WCI   1
WADENA         CLOUDY    12   9  85 S9        30.17S WCI   0
GLENWOOD       CLOUDY    12  10  92 SE6       30.20S WCI   3
APPLETON       CLOUDY    16  12  86 SE7       30.20S WCI   6
BENSON         CLOUDY    16  12  86 CALM      30.21S
ORTONVILLE     CLOUDY    14  10  85 SE9       30.17S WCI   2
MADISON        CLOUDY    16  10  79 S8        30.20S WCI   5
WILLMAR        FAIR      16  14  93 SE7       30.25S WCI   6
$$
MNZ033>034-036-042>043-049>051-058-059-051400-
   Central Minnesota

CITY           SKY/WX    TMP DP  RH WIND       PRES   REMARKS
ST CLOUD       CLOUDY     2  -1  88 SE5       30.27S WCI  -8
SAUK CENTRE    FAIR      10   8  92 SE8       30.22F WCI  -3
PAYNESVILLE    PTCLDY    10   8  91 SE5       30.25S WCI   2
AITKIN         CLOUDY     7   0  72 SE3       30.21F
PINE RIVER     CLOUDY     7   3  85 SE5       30.23S WCI  -2
BRAINERD       CLOUDY     6   4  91 S3        30.22S
STAPLES        MOCLDY     9   7  92 S6        30.19S WCI  -1
LONG PRAIRIE   FAIR       9   5  85 SE6       30.21F WCI  -1
LITTLE FALLS   CLOUDY     7   3  85 SE5       30.25S WCI  -2
LITCHFIELD     CLOUDY    12  10  92 S3        30.27S
BUFFALO        PTCLDY     4   0  86 CALM      30.31R
MAPLE LAKE     CLOUDY     3   0  88 CALM      30.30R
$$
MNZ037-044-045-052-053-051400-
   East Central Minnesota

CITY           SKY/WX    TMP DP  RH WIND       PRES   REMARKS
PRINCETON      CLOUDY     0  -4  85 CALM      30.28S
MORA           CLOUDY     0  -4  85 CALM      30.30R
CAMBRIDGE        N/A      1  -8  66 CALM      30.28S
RUSH CITY      CLOUDY    -2  -5  85 CALM      30.31R
MOOSE LAKE     CLOUDY    -2  -6  84 CALM      30.26S
HINCKLEY       FAIR       1   0  92 CALM      30.29R
CLOQUET        CLOUDY     1  -2  85 CALM      30.24S
MCGREGOR       PTCLDY     7   5  92 S3        30.24F
$$
MNZ071>073-080-081-089-090-097-098-051400-
   Southwest Minnesota

CITY           SKY/WX    TMP DP  RH WIND       PRES   REMARKS
MONTEVIDEO     CLOUDY    12  10  92 S9        30.23F WCI   0
GRANITE FALLS  CLOUDY    13  10  86 SE10      30.25S WCI   0
CANBY          CLOUDY    27  18  67 SW10      30.19S WCI  17
MARSHALL       CLOUDY    18  12  77 S14       30.21F WCI   4
REDWOOD FALLS  CLOUDY     8   4  83 SE12      30.27S WCI  -7
OLIVIA         CLOUDY    12   9  85 SE8       30.26R WCI   1
PIPESTONE        N/A     12   7  79 S12       30.20S WCI  -2
WINDOM         CLOUDY    12  10  92 CALM      30.26S
WORTHINGTON    CLOUDY    16   9  73 S10       30.25S WCI   3
JACKSON        CLOUDY    10   5  79 S7        30.27S WCI   0
TRACY          CLOUDY    20  15  82 S14       30.22F WCI   6
SLAYTON        CLOUDY    16  15  93 S10       30.22S WCI   4
$$
MNZ065>067-074>077-082>085-091>093-051400-
   South Central Minnesota

CITY           SKY/WX    TMP DP  RH WIND       PRES   REMARKS
MANKATO        CLOUDY     5   1  85 SE5       30.32R WCI  -4
NEW ULM        CLOUDY     5   1  85 S6        30.30S WCI  -6
ST JAMES       CLOUDY     9   7  92 SE5       30.31S WCI   0
FAIRMONT       CLOUDY     9   3  78 S7        30.29S WCI  -3
GLENCOE        CLOUDY     8   6  92 CALM      30.30S
FARIBAULT        N/A      5   1  85 CALM      30.33R
OWATONNA       LGT SNOW   9   3  78 CALM      30.32R
WASECA         CLOUDY     5   1  85 CALM      30.34R
ALBERT LEA       N/A      3   1  92 CALM      30.32S
$$
MNZ078>079-086>088-094>096-051400-
   Southeast Minnesota

CITY           SKY/WX    TMP DP  RH WIND       PRES   REMARKS
ROCHESTER      CLOUDY     5   2  87 SW6       30.31S WCI  -6
RED WING       PTCLDY     1  -2  85 CALM      30.34S HAZE
STANTON        PTCLDY     2  -2  83 CALM      30.33R
DODGE CENTER   CLOUDY     3   0  85 CALM      30.30S
WINONA         CLOUDY     9   5  85 CALM      30.38R
AUSTIN         PTCLDY     0  -2  92 CALM      30.32S
PRESTON        PTCLDY     7   4  89 W6        30.32S WCI  -3
$$
ABBREVIATIONS USED IN REMARKS
   TC - TEMPERATURES IN CELSIUS
  WCI - WIND CHILL INDEX
   HX - HEAT INDEX
  VSB - VISIBILITY
$$




USA.gov is the U.S. government's official web portal to all federal, state and local government web resources and services.